Regional Weather Roundup
Issued by NWS

Home | Current Version | Previous Version | Text Only | Print | Product List | Glossary On
Versions: 1 2 3 4 5 6 7 8 9 10 11 12 13 14 15 16 17 18 19 20 21 22 23 24 25 26 27 28 29 30 31 32 33 34 35 36 37 38 39 40 41 42 43 44 45 46 47 48 49 50
000
ASCA42 TJSJ 251211
RWRPR
PUERTO RICO/U.S. VIRGIN ISLANDS HOURLY WEATHER ROUNDUP
NATIONAL WEATHER SERVICE SAN JUAN PR
800 AM AST SUN JAN 25 2015

PRZ001-004-251300-
PUERTO RICO

CITY           SKY/WX    TMP DP  RH WIND       PRES   REMARKS
SAN JUAN LMM   MOSUNNY   73  70  88 CALM      30.03R
AGUADILLA      SUNNY     68  66  94 CALM      30.03R
CEIBA          MOSUNNY   75  72  88 CALM      30.06
$$

PRZ006-007-251300-
U.S. VIRGIN ISLANDS

CITY           SKY/WX    TMP DP  RH WIND       PRES   REMARKS
$$

HOURLY WEATHER ROUNDUP FOR THE NEWS MEDIA

CITY           SKY/WX    TMP DP  RH WIND       PRES   REMARKS
MIAMI          PTCLDY    53  48  83 NW5       30.08R
ORLANDO        CLEAR     46  35  65 NW7       30.10R
NEW YORK       MOCLDY    35  26  69 W17       29.67R WCI  25
NEWARK         MOCLDY    33  27  78 SW12      29.67R WCI  24
CHICAGO        CLOUDY    33  31  92 NE20G29   29.70S WCI  21
HARTFORD       PTCLDY    32  26  78 W15G23    29.52R WCI  22
BOSTON         PTCLDY    34  26  72 W18G26    29.48R WCI  23
DALLAS         CLEAR     40  34  79 CALM      29.96R
PHILADELPHIA   CLOUDY    36  28  73 SW16      29.75R WCI  26



USA.gov is the U.S. government's official web portal to all federal, state and local government web resources and services.